Location: Beetenbrück
(52.8113°N, 9.5946°E)
Time: 21:48:44
(UTC+00:00)

Cosmos 614 Rocket - Pass Details

Date: 14 April 2026
Orbit: 728 x 757 km, 74.1° (Epoch: 12 May)

Event Time Altitude Azimuth Distance (km) Brightness Sun altitude
Rises 19:31:42 0° 336° (NNW) 3,224 8.3 -10.8°
Reaches altitude 10° 19:34:10 10° 342° (NNW) 2,292 7.3 -11.1°
Maximum altitude 19:39:13 49° 57° (ENE) 965 4.4 -11.7°
Enters shadow 19:42:59 17° 127° (SE) 1,823 5.3 -12.2°
